W2PJ Weather Reports


Display with metric or nautical units.
time (UTC)temp
F
wind
direction
speed
MPH
gust
MPH
rain 1hr
in
rain 24hr
in
rain mn
in
humidity
%
barometer
mb
20260904005014 70 101 0.0 0.0 0.00 0.21 0.00 84 1013.4
20260904004553 70 77 0.0 0.0 0.00 0.21 0.00 85 1013.5
20260904004116 70 77 0.0 0.0 0.00 0.21 0.00 84 1013.4
20260904003506 70 77 0.0 0.0 0.00 0.21 0.00 84 1013.3
20260904003035 70 77 0.0 0.0 0.00 0.21 0.00 85 1013.3
20260904002557 70 77 0.0 0.0 0.00 0.21 0.00 85 1013.1
20260904002113 70 22 0.0 0.0 0.00 0.21 0.00 84 1013.2
20260904001637 70 22 0.0 0.0 0.00 0.21 0.00 84 1013.1
20260904001017 71 22 0.0 0.0 0.00 0.21 0.00 85 1013.1
20260904000532 71 22 0.0 0.0 0.00 0.21 0.00 85 1013.1
20260904000126 71 22 0.0 0.0 0.00 0.21 0.00 84 1013.0
20260903235604 72 22 0.0 0.0 0.00 0.21 0.00 84 1012.9
20260903235120 72 22 0.0 0.0 0.00 0.21 0.00 82 1013.0
20260903234517 72 22 0.0 0.0 0.00 0.21 0.00 82 1013.0
20260903234037 72 22 0.0 0.0 0.00 0.21 0.00 82 1013.0
20260903233554 72 22 0.0 0.0 0.00 0.21 0.00 82 1013.1
20260903233058 72 27 0.0 0.0 0.00 0.21 0.00 84 1013.0
20260903232621 72 27 0.0 0.0 0.00 0.21 0.00 82 1012.9
20260903232133 72 27 0.0 0.0 0.00 0.21 0.00 83 1012.8
20260903231653 73 27 0.0 0.0 0.00 0.21 0.00 83 1012.8
20260903231014 73 84 0.0 0.0 0.00 0.21 0.00 81 1012.6
20260903230535 73 84 0.0 0.0 0.00 0.21 0.00 81 1012.7
20260903230055 73 84 0.0 0.0 0.00 0.21 0.00 82 1012.8
20260903225603 73 84 0.0 0.0 0.00 0.21 0.00 82 1012.7
20260903225116 74 84 0.0 0.0 0.00 0.21 0.00 81 1012.6
20260903224545 74 84 0.0 0.0 0.00 0.21 0.00 79 1012.5
20260903224115 74 24 0.0 0.0 0.00 0.21 0.00 78 1012.5
20260903223636 75 25 0.0 0.0 0.00 0.21 0.00 78 1012.5
20260903223006 75 38 0.0 0.0 0.00 0.21 0.00 77 1012.4
20260903222519 76 39 0.0 0.0 0.00 0.21 0.00 76 1012.4
20260903222039 76 53 0.0 0.0 0.00 0.21 0.00 75 1012.6
20260903221559 76 37 0.0 0.0 0.00 0.21 0.00 75 1012.5
20260903221118 77 356 0.0 0.0 0.00 0.21 0.00 75 1012.5
20260903220505 77 34 0.0 0.0 0.00 0.21 0.00 74 1012.5
20260903220035 77 31 0.0 0.0 0.00 0.21 0.00 75 1012.6
20260903215558 77 13 0.0 0.0 0.00 0.21 0.00 73 1012.6
20260903215112 77 324 0.0 0.0 0.00 0.21 0.00 72 1012.5
20260903214635 77 335 0.0 0.0 0.00 0.21 0.00 72 1012.5
20260903214011 77 21 0.0 0.0 0.00 0.21 0.00 70 1012.4
20260903213524 78 335 0.0 0.0 0.00 0.21 0.00 70 1012.5
20260903213048 78 37 0.0 0.0 0.00 0.21 0.00 69 1012.4
20260903212602 78 283 0.0 0.0 0.00 0.21 0.00 68 1012.4
20260903212113 78 50 0.0 0.0 0.00 0.21 0.00 68 1012.4
20260903211540 78 286 0.0 0.0 0.00 0.21 0.00 69 1012.5
20260903211055 78 311 0.0 0.0 0.00 0.21 0.00 68 1012.6
20260903210612 78 285 0.0 0.0 0.00 0.21 0.00 69 1012.6
20260903210138 78 280 0.0 0.0 0.00 0.21 0.00 68 1012.7
20260903205522 78 327 0.0 0.0 0.00 0.21 0.00 71 1012.7
20260903205039 77 292 0.0 0.0 0.00 0.21 0.00 69 1012.8
20260903204555 77 304 0.0 0.0 0.00 0.21 0.00 71 1012.8
20260903204117 77 262 0.0 0.0 0.00 0.21 0.00 71 1012.9
20260903203502 77 70 0.0 0.0 0.00 0.21 0.00 70 1012.9
20260903203045 77 292 0.0 0.0 0.00 0.21 0.00 70 1012.9
20260903202604 78 304 0.0 0.0 0.00 0.21 0.00 70 1012.9
20260903202121 78 294 0.0 0.0 0.00 0.21 0.00 69 1012.8
20260903201641 78 5 0.0 0.0 0.00 0.21 0.00 72 1012.8
20260903201006 78 312 0.0 0.0 0.00 0.21 0.00 68 1012.8
20260903200530 79 300 0.0 4.0 0.00 0.21 0.00 69 1012.9
20260903200043 78 262 0.0 5.0 0.00 0.21 0.00 69 1012.9
20260903195119 78 304 0.0 2.0 0.00 0.21 0.00 66 1012.9
20260903194547 79 293 0.0 6.0 0.00 0.21 0.00 67 1013.0
20260903194055 78 294 0.0 6.0 0.00 0.21 0.00 68 1013.0
20260903193614 78 266 0.0 8.0 0.00 0.21 0.00 67 1013.1
20260903193138 78 289 1.0 8.0 0.00 0.21 0.00 66 1013.2
20260903192620 78 53 0.0 4.0 0.00 0.21 0.00 66 1013.1
20260903192132 78 296 0.0 7.0 0.00 0.21 0.00 67 1013.2
20260903191650 77 298 1.0 7.0 0.00 0.21 0.00 67 1013.3
20260903191012 77 287 0.0 4.0 0.00 0.21 0.00 68 1013.3
20260903190535 77 317 0.0 4.0 0.00 0.21 0.00 66 1013.4
20260903190101 77 314 0.0 5.0 0.00 0.21 0.00 66 1013.3
20260903185610 78 302 0.0 5.0 0.00 0.21 0.00 65 1013.4
20260903185124 78 249 0.0 6.0 0.00 0.21 0.00 67 1013.4
20260903184643 77 252 0.0 6.0 0.00 0.21 0.00 68 1013.5
20260903184133 77 265 0.0 4.0 0.00 0.21 0.00 69 1013.5
20260903183526 77 317 0.0 11.0 0.00 0.21 0.00 67 1013.5
20260903183042 77 264 0.0 7.0 0.00 0.21 0.00 68 1013.3
20260903182559 77 316 0.0 7.0 0.00 0.21 0.00 67 1013.2
20260903182117 77 272 0.0 0.0 0.00 0.21 0.00 70 1013.3
20260903181544 77 273 0.0 6.0 0.00 0.21 0.00 70 1013.5
20260903181104 77 249 0.0 9.0 0.00 0.21 0.00 69 1013.5
20260903180618 77 294 0.0 0.0 0.00 0.21 0.00 70 1013.4
20260903180044 77 42 0.0 0.0 0.00 0.21 0.00 70 1013.5
20260903175554 76 3 0.0 6.0 0.00 0.21 0.00 71 1013.6
20260903175114 76 306 0.0 6.0 0.00 0.21 0.00 69 1013.7
20260903174639 76 252 0.0 7.0 0.00 0.21 0.00 72 1013.7
20260903174017 76 269 2.0 8.0 0.00 0.21 0.00 69 1013.7
20260903173534 76 171 0.0 6.0 0.00 0.21 0.00 77 1013.6
20260903173052 75 283 0.0 6.0 0.00 0.21 0.00 77 1013.7
20260903172609 75 201 0.0 4.0 0.00 0.21 0.00 79 1013.6
20260903172125 74 254 0.0 6.0 0.00 0.21 0.00 79 1013.7
20260903171643 74 259 0.0 6.0 0.00 0.21 0.00 80 1013.8
20260903171010 74 297 0.0 0.0 0.00 0.21 0.00 79 1013.8
20260903170531 74 261 0.0 0.0 0.00 0.21 0.00 80 1013.8
20260903170055 75 310 0.0 0.0 0.00 0.21 0.00 81 1013.8
20260903165602 75 241 0.0 0.0 0.00 0.21 0.00 82 1013.9
20260903165118 74 279 0.0 6.0 0.00 0.21 0.00 81 1014.0
20260903164538 74 272 0.0 5.0 0.00 0.21 0.00 81 1014.0
20260903164101 74 272 0.0 0.0 0.00 0.21 0.00 81 1014.1
20260903163617 74 300 0.0 5.0 0.00 0.21 0.00 83 1014.1
20260903163034 73 195 0.0 5.0 0.00 0.21 0.00 85 1014.1
20260903162548 73 292 0.0 5.0 0.00 0.21 0.00 86 1014.1
20260903162109 73 311 0.0 8.0 0.00 0.21 0.00 85 1014.2
20260903161634 73 297 0.0 8.0 0.00 0.21 0.00 86 1014.2
20260903161008 73 280 0.0 7.0 0.00 0.21 0.00 86 1014.1
20260903160529 73 233 0.0 1.0 0.00 0.21 0.00 86 1014.2
20260903160045 73 165 0.0 4.0 0.00 0.21 0.00 88 1014.3
20260903155606 72 264 0.0 4.0 0.00 0.45 0.00 89 1014.3
20260903155125 72 244 0.0 3.0 0.00 0.45 0.00 89 1014.3
20260903154544 71 261 0.0 3.0 0.00 0.45 0.00 90 1014.3
20260903154101 71 313 0.0 3.0 0.00 0.45 0.00 90 1014.3
20260903153620 71 313 0.0 2.0 0.00 0.45 0.00 91 1014.3
20260903153006 71 226 0.0 2.0 0.00 0.45 0.00 91 1014.4
20260903152529 71 144 0.0 4.0 0.00 0.45 0.00 92 1014.5
20260903152049 70 258 0.0 4.0 0.00 0.45 0.00 92 1014.5
20260903151614 70 123 0.0 6.0 0.00 0.45 0.00 92 1014.5
20260903151004 70 241 2.0 8.0 0.00 0.45 0.00 92 1014.6
20260903150525 69 228 2.0 8.0 0.00 0.45 0.00 92 1014.6
20260903150109 69 244 0.0 8.0 0.00 0.45 0.00 92 1014.6
20260903145600 69 242 0.0 8.0 0.00 0.56 0.00 92 1014.5
20260903145123 69 242 1.0 5.0 0.00 0.56 0.00 92 1014.6
20260903144538 69 221 1.0 5.0 0.00 0.56 0.00 92 1014.5
20260903144055 69 273 0.0 7.0 0.00 0.56 0.00 92 1014.5
20260903143612 69 264 3.0 7.0 0.00 0.56 0.00 92 1014.4
20260903143139 68 244 0.0 3.0 0.00 0.56 0.00 92 1014.5
20260903142511 68 241 0.0 4.0 0.00 0.56 0.00 92 1014.5
20260903142027 68 173 0.0 6.0 0.00 0.56 0.00 92 1014.5
20260903141538 68 254 0.0 6.0 0.00 0.56 0.00 92 1014.4
20260903141058 68 259 1.0 7.0 0.00 0.56 0.00 92 1014.4
20260903140619 68 220 0.0 3.0 0.00 0.56 0.00 92 1014.4
20260903140148 68 238 0.0 4.0 0.00 0.56 0.00 92 1014.3
20260903135514 68 254 0.0 6.0 0.00 0.56 0.00 92 1014.3
20260903135032 69 262 1.0 8.0 0.00 0.56 0.00 92 1014.2
20260903134600 69 242 2.0 8.0 0.00 0.56 0.00 92 1014.1
20260903134118 69 265 1.0 10.0 0.00 0.56 0.00 91 1014.2
20260903133634 69 254 6.0 11.0 0.00 0.56 0.00 91 1014.1
20260903133151 69 262 0.0 8.0 0.00 0.56 0.00 91 1014.2
20260903132514 69 276 1.0 7.0 0.00 0.56 0.00 91 1014.2
20260903132034 69 234 1.0 7.0 0.00 0.56 0.00 91 1014.2
20260903131551 69 242 0.0 7.0 0.00 0.56 0.00 91 1014.1
20260903131106 69 268 2.0 6.0 0.00 0.56 0.00 91 1014.2
20260903130623 69 202 0.0 4.0 0.00 0.56 0.00 91 1014.2
20260903130032 69 257 0.0 4.0 0.00 0.56 0.00 91 1014.2
20260903125553 69 204 0.0 3.0 0.00 0.56 0.00 91 1014.2
20260903125113 69 144 0.0 3.0 0.00 0.56 0.00 91 1014.3
20260903124636 69 216 0.0 3.0 0.00 0.56 0.00 91 1014.3
20260903124009 69 167 0.0 1.0 0.00 0.56 0.00 91 1014.3
20260903123529 69 172 0.0 3.0 0.00 0.56 0.00 91 1014.2
20260903123050 68 185 0.0 3.0 0.00 0.56 0.00 91 1014.2
20260903122611 68 171 0.0 4.0 0.00 0.56 0.00 91 1014.2
20260903122130 68 174 0.0 4.0 0.00 0.56 0.00 92 1014.2
20260903121539 68 193 0.0 4.0 0.00 0.56 0.00 92 1014.1
20260903121056 68 195 0.0 2.0 0.00 0.56 0.00 92 1014.2
20260903120620 68 188 0.0 0.0 0.00 0.00 0.00 92 1014.2
20260903120042 68 220 0.0 0.0 0.00 0.56 0.00 92 1014.0
20260903115556 68 162 0.0 0.0 0.00 0.56 0.00 92 1014.0
20260903115116 68 206 0.0 0.0 0.00 0.56 0.00 92 1014.1
20260903114533 68 254 0.0 0.0 0.00 0.56 0.00 92 1014.0
20260903114050 68 237 0.0 0.0 0.00 0.56 0.00 92 1014.0
20260903113612 68 241 0.0 0.0 0.00 0.56 0.00 92 1013.9
20260903113136 68 150 0.0 1.0 0.00 0.56 0.00 91 1013.7
20260903112510 68 249 0.0 1.0 0.00 0.56 0.00 91 1013.7
20260903112031 68 142 0.0 3.0 0.00 0.56 0.00 91 1013.6
20260903111548 68 228 0.0 3.0 0.00 0.56 0.00 91 1013.6
20260903111104 68 174 0.0 3.0 0.00 0.56 0.00 91 1013.5
20260903110622 68 151 0.0 2.0 0.00 0.56 0.00 91 1013.5
20260903110005 68 144 0.0 2.0 0.00 0.56 0.00 91 1013.5
20260903105550 68 216 0.0 3.0 0.00 0.56 0.00 91 1013.5
20260903105114 68 227 0.0 3.0 0.00 0.56 0.00 91 1013.5
20260903104641 68 209 0.0 2.0 0.00 0.56 0.00 91 1013.6
20260903104005 68 181 0.0 1.0 0.00 0.56 0.00 91 1013.6
20260903103518 68 164 0.0 1.0 0.00 0.56 0.00 91 1013.5
20260903103049 68 150 0.0 3.0 0.00 0.56 0.00 91 1013.5
20260903102558 68 254 0.0 3.0 0.00 0.56 0.00 91 1013.5
20260903102119 68 159 0.0 4.0 0.00 0.56 0.00 91 1013.4
20260903101543 68 174 0.0 5.0 0.00 0.56 0.00 91 1013.3
20260903101100 68 208 1.0 6.0 0.00 0.56 0.00 91 1013.4
20260903100616 68 248 1.0 7.0 0.00 0.56 0.00 91 1013.4
20260903100141 68 221 1.0 7.0 0.00 0.56 0.00 91 1013.3
20260903095507 67 197 0.0 6.0 0.00 0.56 0.00 91 1013.5
20260903095022 67 249 0.0 5.0 0.00 0.56 0.00 91 1013.5
20260903094601 67 190 0.0 3.0 0.00 0.56 0.00 91 1013.4
20260903094116 67 219 0.0 5.0 0.00 0.56 0.00 92 1013.4
20260903093636 67 157 1.0 5.0 0.00 0.56 0.00 92 1013.4
20260903093054 67 224 1.0 5.0 0.00 0.56 0.00 92 1013.5
20260903092548 67 279 0.0 2.0 0.00 0.56 0.00 92 1013.4
20260903092112 67 268 0.0 1.0 0.00 0.56 0.00 92 1013.5
20260903091640 67 196 0.0 4.0 0.00 0.56 0.00 92 1013.3
20260903091013 67 202 0.0 6.0 0.00 0.56 0.00 92 1013.4
20260903090528 67 134 0.0 6.0 0.00 0.56 0.00 92 1013.4
20260903090044 67 161 0.0 3.0 0.00 0.56 0.00 92 1013.3
20260903085602 67 147 0.0 6.0 0.00 0.56 0.00 92 1013.4
20260903085120 67 165 0.0 6.0 0.00 0.56 0.00 92 1013.4
20260903084515 67 244 0.0 9.0 0.00 0.56 0.00 92 1013.4
20260903084034 67 167 0.0 9.0 0.00 0.56 0.00 92 1013.5
20260903083547 67 166 1.0 6.0 0.00 0.56 0.00 92 1013.5
20260903083104 67 154 2.0 6.0 0.00 0.56 0.00 92 1013.5
20260903082622 67 189 0.0 4.0 0.00 0.56 0.00 92 1013.5
20260903082008 67 193 0.0 5.0 0.00 0.56 0.00 92 1013.4
20260903081538 67 199 0.0 5.0 0.00 0.56 0.00 92 1013.6
20260903081053 67 251 0.0 4.0 0.00 0.56 0.00 92 1013.5
20260903080615 67 151 0.0 4.0 0.00 0.56 0.00 92 1013.5
20260903080034 67 221 0.0 8.0 0.00 0.56 0.00 92 1013.6
20260903075554 67 161 0.0 5.0 0.00 0.56 0.00 92 1013.6
20260903075116 67 238 0.0 5.0 0.00 0.56 0.00 92 1013.6
20260903074639 67 155 0.0 4.0 0.00 0.56 0.00 92 1013.6
20260903074006 67 163 0.0 6.0 0.00 0.56 0.00 92 1013.7
20260903073526 67 158 1.0 6.0 0.00 0.56 0.00 92 1013.8
20260903073055 67 174 0.0 5.0 0.00 0.56 0.00 92 1013.9
20260903072612 67 238 0.0 5.0 0.00 0.56 0.00 92 1013.9
20260903072132 67 178 0.0 5.0 0.00 0.56 0.00 92 1013.7
20260903071651 67 235 0.0 5.0 0.00 0.56 0.00 92 1013.9
20260903071018 67 200 0.0 3.0 0.00 0.56 0.00 92 1013.8
20260903070536 67 218 0.0 6.0 0.00 0.56 0.00 92 1013.8
20260903070100 67 197 0.0 8.0 0.00 0.56 0.00 92 1013.7
20260903065607 67 169 1.0 9.0 0.00 0.56 0.00 92 1013.6
20260903065125 67 209 1.0 9.0 0.00 0.56 0.00 92 1013.8
20260903064543 67 231 1.0 7.0 0.00 0.56 0.00 92 1013.6
20260903064102 66 152 2.0 8.0 0.00 0.56 0.00 92 1013.5
20260903063623 66 219 1.0 8.0 0.00 0.56 0.00 92 1013.5
20260903063040 66 205 1.0 8.0 0.00 0.56 0.00 92 1013.4
20260903062558 66 171 0.0 6.0 0.00 0.56 0.00 92 1013.5
20260903062119 66 151 0.0 5.0 0.00 0.56 0.00 91 1013.6
20260903061531 66 193 0.0 2.0 0.00 0.56 0.00 91 1013.7
20260903061049 66 221 0.0 6.0 0.00 0.56 0.00 91 1013.6
20260903060607 65 178 0.0 6.0 0.00 0.56 0.00 91 1013.5
20260903060134 65 158 0.0 0.0 0.00 0.56 0.00 91 1013.5
20260903055633 65 202 0.0 0.0 0.00 0.56 0.00 91 1013.5
20260903055020 65 145 0.0 0.0 0.00 0.56 0.00 91 1013.4
20260903054545 65 129 0.0 0.0 0.00 0.56 0.00 91 1013.5
20260903054058 65 159 0.0 0.0 0.00 0.56 0.00 91 1013.5
20260903053616 65 145 0.0 0.0 0.00 0.56 0.00 91 1013.4
20260903053006 65 120 0.0 0.0 0.00 0.56 0.00 91 1013.4
20260903052524 65 109 0.0 0.0 0.00 0.56 0.00 91 1013.4
20260903052042 65 143 0.0 0.0 0.00 0.56 0.00 91 1013.5
20260903051553 65 157 0.0 1.0 0.00 0.56 0.00 91 1013.4
20260903051114 65 238 0.0 1.0 0.00 0.56 0.00 91 1013.4
20260903050633 65 131 0.0 2.0 0.00 0.56 0.00 91 1013.5
20260903050040 65 123 0.0 2.0 0.00 0.56 0.00 91 1013.4
20260903045555 65 176 0.0 2.0 0.00 0.56 0.00 91 1013.2
20260903045112 65 169 0.0 6.0 0.00 0.56 0.00 91 1013.1
20260903044638 65 193 0.0 6.0 0.00 0.56 0.00 91 1013.1
20260903044006 65 223 0.0 3.0 0.00 0.56 0.00 91 1013.0
20260903043525 65 245 0.0 1.0 0.00 0.56 0.00 91 1013.0
20260903043050 65 117 0.0 1.0 0.00 0.56 0.00 91 1013.1
20260903042616 65 164 0.0 1.0 0.00 0.56 0.00 91 1013.3
20260903042133 65 171 0.0 7.0 0.00 0.56 0.00 91 1013.5
20260903041516 65 176 0.0 7.0 0.00 0.56 0.00 91 1013.8
20260903041024 65 185 0.0 8.0 0.00 0.56 0.00 91 1013.9
20260903040536 65 200 1.0 8.0 0.00 0.56 0.00 91 1014.0
20260903040059 65 174 0.0 1.0 0.00 0.56 0.00 91 1014.1
20260903035501 65 176 0.0 5.0 0.00 0.56 0.56 91 1014.2
20260903035021 65 164 0.0 8.0 0.01 0.56 0.56 91 1014.3
20260903034543 65 201 0.0 11.0 0.01 0.56 0.56 91 1014.5
20260903034104 65 196 6.0 12.0 0.01 0.56 0.56 91 1014.1
20260903033618 64 168 3.0 14.0 0.01 0.56 0.56 91 1014.1
20260903033142 64 193 2.0 20.0 0.02 0.56 0.56 91 1013.5
20260903032517 64 213 2.0 16.0 0.02 0.56 0.56 91 1012.9
20260903032034 64 155 2.0 17.0 0.02 0.56 0.56 91 1012.3
20260903031602 64 172 1.0 17.0 0.03 0.56 0.56 91 1012.1
20260903031117 64 221 1.0 15.0 0.03 0.56 0.56 91 1012.1
20260903030503 65 108 1.0 9.0 0.04 0.56 0.56 92 1012.3
20260903030154 65 178 2.0 9.0 0.05 0.56 0.56 92 1012.4
20260903025506 65 149 1.0 12.0 0.06 0.56 0.56 92 1012.5
20260903025028 65 202 1.0 11.0 0.06 0.56 0.56 92 1012.7
20260903024549 65 204 1.0 11.0 0.07 0.56 0.56 92 1013.2
20260903024111 66 117 0.0 7.0 0.07 0.56 0.56 92 1013.2
20260903023632 66 141 0.0 6.0 0.07 0.55 0.55 92 1013.6
20260903023020 66 195 0.0 1.0 0.09 0.55 0.55 92 1014.2
20260903022525 67 178 0.0 7.0 0.10 0.55 0.55 92 1014.1
20260903022048 67 251 0.0 16.0 0.11 0.55 0.55 91 1013.8
20260903021617 67 230 3.0 16.0 0.10 0.54 0.54 91 1012.5
20260903021003 68 189 1.0 8.0 0.10 0.54 0.54 91 1012.9
20260903020523 68 231 0.0 7.0 0.12 0.53 0.53 90 1013.7
20260903020043 68 229 0.0 7.0 0.15 0.52 0.52 90 1014.0
20260903015601 68 135 0.0 4.0 0.15 0.51 0.51 90 1014.1
20260903015119 68 275 0.0 7.0 0.14 0.50 0.50 90 1014.0
20260903014540 68 273 0.0 13.0 0.13 0.49 0.49 91 1013.9
20260903014105 68 137 0.0 13.0 0.12 0.48 0.48 91 1013.7
20260903013615 68 167 1.0 13.0 0.11 0.47 0.47 91 1014.1
20260903013139 68 204 0.0 8.0 0.10 0.46 0.46 91 1014.4
20260903012506 68 141 0.0 4.0 0.09 0.45 0.45 91 1014.5
20260903012029 68 81 0.0 2.0 0.08 0.44 0.44 91 1014.7
20260903011543 69 240 0.0 3.0 0.08 0.44 0.44 91 1015.4
20260903011102 69 116 0.0 6.0 0.08 0.44 0.44 92 1015.6
20260903010619 69 219 1.0 11.0 0.05 0.41 0.41 92 1015.4
20260903010035 69 113 2.0 11.0 0.01 0.37 0.37 92 1015.5
20260903005550 69 193 1.0 8.0 0.00 0.36 0.36 92 1015.1